TimeMST,TemperatureF,Dew PointF,Humidity,Sea Level PressureIn,VisibilityMPH,Wind Direction,Wind SpeedMPH,Gust SpeedMPH,PrecipitationIn,Events,Conditions,WindDirDegrees,DateUTC
12:16 AM,42.8,24.8,49,30.05,10.0,Calm,Calm,-,N/A,,Clear,0,2013-01-26 07:16:00
12:35 AM,41.0,24.8,53,30.05,10.0,NNW,3.5,-,N/A,,Clear,340,2013-01-26 07:35:00
12:56 AM,41.0,23.0,49,30.05,10.0,Calm,Calm,-,N/A,,Clear,0,2013-01-26 07:56:00
1:16 AM,41.0,24.8,53,30.04,10.0,Calm,Calm,-,N/A,,Clear,0,2013-01-26 08:16:00
1:36 AM,37.4,23.0,56,30.05,10.0,Calm,Calm,-,N/A,,Clear,0,2013-01-26 08:36:00
1:56 AM,37.4,23.0,56,30.04,10.0,Calm,Calm,-,N/A,,Clear,0,2013-01-26 08:56:00
2:16 AM,39.2,24.8,56,30.04,10.0,Calm,Calm,-,N/A,,Clear,0,2013-01-26 09:16:00
2:36 AM,37.4,23.0,56,30.03,10.0,Calm,Calm,-,N/A,,Clear,0,2013-01-26 09:36:00
2:56 AM,35.6,23.0,60,30.02,10.0,West,3.5,-,N/A,,Clear,260,2013-01-26 09:56:00
3:16 AM,37.4,23.0,56,30.02,10.0,North,3.5,-,N/A,,Clear,10,2013-01-26 10:16:00
3:36 AM,37.4,23.0,56,30.01,10.0,Calm,Calm,-,N/A,,Clear,0,2013-01-26 10:36:00
3:56 AM,37.4,24.8,60,30.01,10.0,Calm,Calm,-,N/A,,Clear,0,2013-01-26 10:56:00
4:16 AM,37.4,24.8,60,30.00,10.0,WNW,3.5,-,N/A,,Clear,300,2013-01-26 11:16:00
4:36 AM,39.2,23.0,52,30.00,10.0,SSE,4.6,-,N/A,,Clear,160,2013-01-26 11:36:00
4:56 AM,37.4,24.8,60,29.99,10.0,ESE,6.9,-,N/A,,Clear,120,2013-01-26 11:56:00
5:48 AM,41.0,23.0,49,29.94,30.0,North,4.6,-,N/A,,Partly Cloudy,350,2013-01-26 12:48:00
6:47 AM,35.6,23.0,60,30.00,50.0,Calm,Calm,-,N/A,,Scattered Clouds,0,2013-01-26 13:47:00
7:50 AM,37.4,23.0,56,29.99,60.0,NW,5.8,-,N/A,,Scattered Clouds,320,2013-01-26 14:50:00
8:47 AM,41.0,24.8,53,30.00,60.0,NNE,4.6,-,N/A,,Scattered Clouds,20,2013-01-26 15:47:00
9:50 AM,41.0,24.8,53,30.02,60.0,North,4.6,-,N/A,,Overcast,350,2013-01-26 16:50:00
10:47 AM,44.6,23.0,43,30.01,50.0,NNW,4.6,-,N/A,,Mostly Cloudy,330,2013-01-26 17:47:00
11:55 AM,48.2,24.8,40,29.97,60.0,North,4.6,-,N/A,,Mostly Cloudy,360,2013-01-26 18:55:00
12:47 PM,50.0,23.0,35,29.92,60.0,Calm,Calm,-,N/A,,Mostly Cloudy,0,2013-01-26 19:47:00
1:50 PM,51.8,21.2,30,29.88,60.0,NE,3.5,-,N/A,,Mostly Cloudy,50,2013-01-26 20:50:00
2:47 PM,53.6,23.0,30,29.87,60.0,North,8.1,-,N/A,,Mostly Cloudy,350,2013-01-26 21:47:00
3:59 PM,50.0,23.0,35,29.87,60.0,North,5.8,-,N/A,,Mostly Cloudy,360,2013-01-26 22:59:00
5:45 PM,46.4,23.0,40,29.85,20.0,Calm,Calm,-,N/A,,Overcast,0,2013-01-27 00:45:00
6:50 PM,46.4,28.4,50,29.85,20.0,Calm,Calm,-,N/A,,Overcast,0,2013-01-27 01:50:00
7:45 PM,42.8,32.0,66,29.84,20.0,NW,6.9,-,N/A,,Light Drizzle,320,2013-01-27 02:45:00
8:54 PM,41.0,35.6,81,29.81,15.0,WNW,5.8,-,N/A,Rain,Light Rain,290,2013-01-27 03:54:00
9:51 PM,41.0,35.6,81,29.79,15.0,Calm,Calm,-,N/A,,Overcast,0,2013-01-27 04:51:00
10:16 PM,42.8,35.6,76,29.78,10.0,Calm,Calm,-,N/A,,Overcast,0,2013-01-27 05:16:00
10:36 PM,41.0,35.6,81,29.78,10.0,Calm,Calm,-,N/A,,Overcast,0,2013-01-27 05:36:00
10:56 PM,41.0,35.6,81,29.77,10.0,Calm,Calm,-,N/A,,Overcast,0,2013-01-27 05:56:00
11:16 PM,41.0,35.6,81,29.76,10.0,Calm,Calm,-,N/A,,Overcast,0,2013-01-27 06:16:00
11:36 PM,41.0,35.6,81,29.76,10.0,Calm,Calm,-,N/A,,Overcast,0,2013-01-27 06:36:00
11:56 PM,41.0,35.6,81,29.75,10.0,Calm,Calm,-,N/A,,Overcast,0,2013-01-27 06:56:00